Yoho Park, British Columbia

7:39 AM MDT on April 23, 2017 (GMT -0600)
Yoho Park

Weather History for CWYL - December, 2013

Change the Weather History Date:

Sunday, December 29, 2013

  Actual Average Record
Temperature  
Mean Temperature 19 °F -  
Max Temperature 23 °F - - ()
Min Temperature 15 °F - - ()
Degree Days  
Heating Degree Days 46    
Moisture  
Dew Point 20 °F    
Average Humidity 96    
Maximum Humidity 100    
Minimum Humidity 88    
Precipitation  
Precipitation 0.00 in - - ()
Sea Level Pressure  
Sea Level Pressure 30.14 in    
Wind  
Wind Speed 16 mph ()    
Max Wind Speed 23 mph    
Max Gust Speed 30 mph    
T = Trace of Precipitation, MM = Missing Value Source: Averaged Metar Reports

Daily Weather History Graph

Daily Weather History Graph

Search for Another Location

Airport or City:

Trip Planner

Search our weather history database for the weather conditions in past years. The results will help you decide how hot, cold, wet, or windy it might be!

Date:

Astronomy

Dec. 29, 2013 Rise Set
Actual Time 8:50 AM MST 4:44 PM MST
Civil Twilight 8:10 AM MST 5:24 PM MST
Nautical Twilight 7:27 AM MST 6:07 PM MST
Astronomical Twilight 6:47 AM MST 6:48 PM MST
Moon 5:29 AM MST (12/29) 2:34 PM MST (12/29)
Length of Visible Light 9h 13m
Length of Day
7h 53m
Waning Crescent, 10% of the Moon is Illuminated
Dec 29
Waning Crescent
Jan 1
New
Jan 7
First Quarter
Jan 15
Full
Jan 23
Last Quarter

Hourly Weather History & Observations

Time (MST) Temp. Windchill Dew Point Humidity Pressure Visibility Wind Dir Wind Speed Gust Speed Precip Events Conditions
12:00 AM 19.8 °F 7.1 °F 19.4 °F 99% 30.32 in - West 12.7 mph - N/A   Unknown
1:00 AM 18.7 °F 5.7 °F 17.8 °F 96% 30.29 in - WSW 12.7 mph - N/A   Unknown
2:00 AM 18.0 °F 6.1 °F 17.2 °F 97% 30.25 in - WSW 10.4 mph - N/A   Unknown
3:00 AM 18.7 °F 5.1 °F 18.1 °F 98% 30.23 in - West 13.8 mph - N/A   Unknown
4:00 AM 19.4 °F 5.0 °F 18.7 °F 97% 30.22 in - West 16.1 mph - N/A   Unknown
5:00 AM 20 °F - 19 °F 93% 30.20 in - West 19.6 mph - -  
5:00 AM 19.6 °F 3.9 °F 18.9 °F 97% 30.20 in - West 19.6 mph 25.3 mph N/A   Unknown
6:00 AM 19.8 °F 3.7 °F 19.2 °F 98% 30.19 in - West 20.7 mph - N/A   Unknown
7:00 AM 19.9 °F 4.8 °F 19.2 °F 97% 30.18 in - West 18.4 mph - N/A   Unknown
8:00 AM 19.8 °F 3.3 °F 19.0 °F 97% 30.15 in - West 21.9 mph - N/A   Unknown
9:00 AM 19.4 °F 3.6 °F 18.5 °F 96% 30.14 in - West 19.6 mph - N/A   Unknown
10:00 AM 19.9 °F 3.2 °F 19.0 °F 96% 30.13 in - West 23.0 mph - N/A   Unknown
11:00 AM 21 °F - 20 °F 92% 30.12 in - West 21.9 mph - -  
11:00 AM 20.8 °F 4.7 °F 19.6 °F 95% 30.12 in - West 21.9 mph - N/A   Unknown
12:00 PM 21.7 °F 5.9 °F 22.1 °F 100% 30.09 in - West 21.9 mph - N/A   Unknown
1:00 PM 23.0 °F 7.6 °F 20.7 °F 91% 30.08 in - West 21.9 mph - N/A   Unknown
2:00 PM 22.3 °F 6.6 °F 20.8 °F 94% 30.06 in - West 21.9 mph 27.6 mph N/A   Unknown
3:00 PM 23.9 °F 9.1 °F 20.8 °F 88% 30.05 in - West 20.7 mph - N/A   Unknown
4:00 PM 21.9 °F 6.9 °F 21.0 °F 96% 30.06 in - West 19.6 mph 26.5 mph N/A   Unknown
5:00 PM 22 °F - 21 °F 95% 30.07 in - West 21.9 mph - -  
5:00 PM 21.7 °F 5.9 °F 21.2 °F 98% 30.07 in - West 21.9 mph 27.6 mph N/A   Unknown
6:00 PM 21.4 °F 6.2 °F 20.8 °F 98% 30.07 in - West 19.6 mph 26.5 mph N/A   Unknown
7:00 PM 21.4 °F 5.5 °F 20.8 °F 98% 30.08 in - WSW 21.9 mph 27.6 mph N/A   Unknown
8:00 PM 21.6 °F 5.3 °F 21.0 °F 98% 30.09 in - WSW 23.0 mph 29.9 mph N/A   Unknown
9:00 PM 21.6 °F 5.7 °F 21.0 °F 98% 30.11 in - WSW 21.9 mph - N/A   Unknown
10:00 PM 21.6 °F 6.5 °F 21.0 °F 98% 30.12 in - WSW 19.6 mph - N/A   Unknown
11:00 PM 21 °F - 21 °F 99% 30.13 in - West 17.3 mph - -  
11:00 PM 21.4 °F 7.1 °F 20.8 °F 98% 30.13 in - West 17.3 mph - N/A   Unknown